[[{"header":{"parameterUnit":"m.s-1","parameterCategory":1,"la1":30.2991,"la2":30.254,"lo1":-89.0895,"lo2":-89.0444,"dy":0.0017,"dx":0.0017,"nx":28,"ny":28,"refTime":"2024-08-18T03:00:00:Z","depth":0,"parameterNumber":2,"parameterNumberName":"U-component_of_WINDS"},"data":[0,0,0,0,0,0,0,0,0,0,0,0,0,0,0,0,0,0,0,0,0,0,0,0,0,0,0,0,0,0,0,0,0,0,0,0,0,0,0,0,0,0,0,0,0,0,0,0,0,0,0,0,0,0,0,0,0,0,1.573,1.5731,0,1.5869,1.587,1.5872,1.5882,1.5881,1.5879,1.5878,1.6029,1.6034,1.604,0,0,0,0,0,0,0,0,0,0,0,0,0,1.5482,1.5487,1.573,1.5731,1.5733,1.5869,1.5871,1.5872,1.5883,1.5881,1.5879,1.5877,1.6027,1.6034,1.604,0,0,0,0,0,0,0,0,0,0,0,0,0,1.5602,1.5488,1.5729,1.5754,1.5758,1.5868,1.5871,1.5873,1.5883,1.5881,1.5878,1.5876,1.6025,1.6033,1.6041,1.6138,0,0,1.6066,1.607,0,0,0,0,0,0,0,0,1.5596,1.5612,1.5749,1.5753,1.5757,1.5856,1.5839,1.5962,1.5884,1.5836,1.5878,1.5875,1.5974,1.5986,1.6017,1.6145,1.6152,1.6067,1.6072,1.6075,1.6078,0,0,0,0,0,0,0,1.5587,1.5606,1.5785,1.5751,1.5756,1.5762,1.5776,1.5862,1.5917,1.584,1.5841,1.5857,1.5976,1.601,1.6021,1.6154,1.6067,1.6074,1.6079,1.6082,1.6373,1.6375,0,0,0,0,0,0,1.5573,1.5599,1.5781,1.5789,1.5669,1.5768,1.5784,1.5827,1.5915,1.5927,1.5859,1.5857,1.5997,1.6012,1.6026,1.6148,1.6075,1.6083,1.6088,1.637,1.6373,1.6376,0,0,0,0,0,0,1.5568,1.5589,1.5775,1.5694,1.5718,1.5775,1.5822,1.5831,1.5864,1.593,1.594,1.5883,1.5995,1.6015,1.6111,1.6154,1.6087,1.6094,1.6366,1.6371,1.6375,1.6392,0,0,0,0,0,0,1.556,1.5587,1.5622,1.5695,1.5722,1.5854,1.5825,1.5835,1.5878,1.5876,1.5955,1.5966,1.5995,1.6098,1.6119,1.6164,1.6101,1.6363,1.6368,1.6373,1.6388,1.6396,1.6403,0,0,0,0,0,1.5551,1.5623,1.5624,1.5646,1.5767,1.5856,1.5872,1.5902,1.5881,1.5919,1.5961,1.5963,1.6145,1.6108,1.6131,1.6179,1.636,1.6367,1.6373,1.6384,1.6394,1.6403,0,0,0,0,0,0,1.5556,1.5633,1.5635,1.5731,1.5787,1.5858,1.5906,1.5912,1.5977,1.5973,1.601,1.6028,1.6123,1.6161,1.6118,1.628,1.6251,1.6262,1.6252,1.6262,1.6269,1.6259,1.6107,0,0,0,0,0,1.5568,1.5631,1.5695,1.5774,1.5802,1.5849,1.5889,1.5907,1.5967,1.5992,1.6041,1.6102,1.6173,1.6219,1.6288,1.6393,1.6412,1.6438,1.6445,1.6451,1.6461,1.6522,1.6535,1.6397,1.6397,1.6397,0,0,1.5594,1.5643,1.5681,1.5777,1.5822,1.589,1.5869,1.5941,1.5993,1.6004,1.6097,1.6135,1.6206,1.6307,1.6354,1.6342,1.6504,1.6459,1.6464,1.6471,1.653,1.6543,1.6555,1.6401,1.64,1.64,0,0,1.5676,1.5718,1.579,1.5835,1.5903,1.5934,1.5952,1.6022,1.6047,1.6141,1.6151,1.6215,1.6336,1.6386,1.6428,1.6531,1.6537,1.6552,1.6594,1.6653,1.6664,1.6674,1.6713,1.6726,1.6562,1.6562,1.6562,0,1.57,1.5799,1.5826,1.5898,1.5941,1.5952,1.6027,1.6071,1.6159,1.619,1.6174,1.6327,1.6376,1.649,1.6515,1.6547,1.6571,1.6544,1.6659,1.667,1.6679,1.6717,1.6731,1.6563,1.6563,1.6563,1.6563,0,1.5828,1.5897,1.5947,1.6029,1.6078,1.6151,1.6192,1.6239,1.6253,1.6287,1.6384,1.6442,1.6524,1.6552,1.6567,1.667,1.666,1.6651,1.6623,1.6694,1.673,1.6744,1.6566,1.6565,1.6565,1.6564,0,0,1.5916,1.6013,1.6031,1.607,1.6147,1.6202,1.6277,1.6355,1.6395,1.6457,1.6523,1.6625,1.6618,1.6665,1.6686,1.6738,1.6819,1.6724,1.6726,1.6741,1.6938,1.6946,1.6962,1.6822,1.6825,1.6828,1.6933,0,1.6009,1.6139,1.6166,1.6281,1.6347,1.6359,1.6425,1.6481,1.6515,1.6578,1.6617,1.669,1.6673,1.6702,1.6754,1.6798,1.6859,1.679,1.6888,1.6891,1.6871,1.698,1.6988,1.7085,1.6947,1.695,1.6951,0,1.6133,1.6195,1.6316,1.6385,1.6414,1.6472,1.6547,1.6606,1.6671,1.6693,1.6746,1.6762,1.6844,1.6811,1.6926,1.6879,1.692,1.6948,1.6953,1.6965,1.6926,1.6997,1.7116,1.7131,1.6974,1.6972,1.697,0,1.6189,1.6303,1.639,1.6422,1.6505,1.6546,1.6583,1.6646,1.6691,1.6758,1.6788,1.6864,1.6906,1.6966,1.7003,1.6975,1.7117,1.7086,1.714,1.7139,1.717,1.7168,1.73,1.7194,1.7194,1.7193,1.7193,0,1.629,1.6364,1.6416,1.647,1.6554,1.6586,1.667,1.6707,1.6763,1.6827,1.6842,1.6902,1.6947,1.7015,1.7045,1.7137,1.7156,1.7178,1.7185,1.7178,1.7175,1.7207,1.7202,1.7197,1.7197,1.7196,1.7195,0,1.6366,1.6404,1.65,1.6571,1.659,1.6649,1.6711,1.6766,1.68,1.6881,1.6902,1.6957,1.7037,1.708,1.7181,1.7201,1.7306,1.7309,1.7283,1.7287,1.7339,1.7334,1.7496,1.7521,1.7397,1.7398,1.7399,0,1.6429,1.6486,1.6562,1.6605,1.6642,1.6711,1.6757,1.6792,1.684,1.6919,1.6965,1.7046,1.7112,1.7241,1.7292,1.737,1.7376,1.7428,1.7388,1.7379,1.738,1.7376,1.7384,1.7435,1.7436,1.7437,1.7438,0,1.6537,1.6553,1.6618,1.669,1.6745,1.6804,1.6862,1.6897,1.6942,1.6996,1.7077,1.7128,1.7231,1.7312,1.7394,1.7436,1.7446,1.745,1.7467,1.746,1.7444,1.7455,1.7304,1.7446,1.7445,1.7445,1.7444,1.7444,1.6611,1.6662,1.6724,1.6797,1.6844,1.6899,1.6954,1.6995,1.7062,1.7147,1.7164,1.7251,1.7317,1.7428,1.7472,1.7543,1.7533,1.7556,1.7563,1.7569,1.7572,1.7431,1.7558,1.7557,1.7557,1.7557,1.7557,0,1.6721,1.6762,1.6828,1.6909,1.6967,1.6967,1.7033,1.7082,1.7157,1.7217,1.7282,1.7377,1.7456,1.7513,1.7594,1.764,1.7647,1.766,1.7658,1.7668,1.7575,1.7553,1.7654,1.7654,1.7653,1.7653,1.7653,1.7653,1.6786,1.6874,1.6898,1.7012,1.7052,1.7135,1.7173,1.7225,1.7273,1.7377,1.7442,1.7477,1.7538,1.7624,1.7697,1.7712,1.7743,1.7756,1.7772,1.7685,1.7675,1.7665,1.7644,1.7762,1.7762,1.786,1.7861,1.7861]},{"header":{"parameterUnit":"m.s-1","parameterCategory":1,"la1":30.2991,"la2":30.254,"lo1":-89.0895,"lo2":-89.0444,"dy":0.0017,"dx":0.0017,"nx":28,"ny":28,"refTime":"2024-08-18T03:00:00:Z","depth":0,"parameterNumber":3,"parameterNumberName":"V-component_of_WINDS"},"data":[0,0,0,0,0,0,0,0,0,0,0,0,0,0,0,0,0,0,0,0,0,0,0,0,0,0,0,0,0,0,0,0,0,0,0,0,0,0,0,0,0,0,0,0,0,0,0,0,0,0,0,0,0,0,0,0,0,0,3.0738,3.074,0,3.0919,3.0921,3.0923,3.0919,3.0917,3.0914,3.0912,3.1093,3.11,3.1107,0,0,0,0,0,0,0,0,0,0,0,0,0,3.0381,3.0387,3.0738,3.074,3.0743,3.0919,3.0921,3.0924,3.092,3.0917,3.0914,3.0911,3.1091,3.1099,3.1108,0,0,0,0,0,0,0,0,0,0,0,0,0,3.0546,3.039,3.0738,3.0762,3.0766,3.0918,3.0921,3.0924,3.092,3.0917,3.0913,3.091,3.1088,3.1099,3.1109,3.1248,0,0,3.1142,3.1146,0,0,0,0,0,0,0,0,3.0537,3.0559,3.0756,3.076,3.0765,3.0893,3.0862,3.1033,3.0921,3.0862,3.0912,3.0908,3.1029,3.1045,3.1087,3.1257,3.1265,3.1143,3.1149,3.1154,3.1157,0,0,0,0,0,0,0,3.0525,3.0551,3.0809,3.0759,3.0764,3.0761,3.078,3.0894,3.0964,3.0866,3.0867,3.0888,3.1031,3.1076,3.1091,3.1267,3.1142,3.1152,3.1158,3.1163,3.1554,3.1558,0,0,0,0,0,0,3.051,3.0542,3.0804,3.0815,3.064,3.077,3.0792,3.0856,3.0962,3.0975,3.0891,3.0887,3.106,3.1078,3.1097,3.1263,3.1154,3.1164,3.117,3.155,3.1555,3.1559,0,0,0,0,0,0,3.0502,3.0533,3.0796,3.0679,3.0712,3.0781,3.0852,3.0861,3.0906,3.0981,3.0993,3.0925,3.1058,3.1082,3.121,3.127,3.1168,3.1178,3.1545,3.1552,3.1557,3.1599,0,0,0,0,0,0,3.0492,3.053,3.0586,3.068,3.0718,3.0909,3.0856,3.0867,3.0925,3.0922,3.1016,3.1028,3.1057,3.1194,3.122,3.1282,3.1186,3.154,3.1548,3.1555,3.1592,3.1606,3.1617,0,0,0,0,0,3.0479,3.0591,3.0589,3.0621,3.079,3.0912,3.0934,3.0966,3.093,3.0985,3.1032,3.1025,3.1259,3.1207,3.1237,3.1303,3.1537,3.1546,3.1555,3.1587,3.1603,3.1617,0,0,0,0,0,0,3.0503,3.0604,3.0603,3.0749,3.0822,3.0911,3.0982,3.0982,3.1066,3.1059,3.1094,3.1115,3.1241,3.1285,3.1225,3.144,3.1393,3.1408,3.1407,3.1423,3.1435,3.1421,3.1195,0,0,0,0,0,3.0525,3.0618,3.0701,3.0821,3.0858,3.0914,3.0968,3.0986,3.1062,3.1093,3.115,3.1222,3.1311,3.137,3.1457,3.1598,3.1616,3.1658,3.167,3.168,3.1692,3.1765,3.1784,3.1589,3.1589,3.1589,0,0,3.0572,3.0639,3.0695,3.0828,3.0886,3.0979,3.094,3.1041,3.1108,3.1108,3.1231,3.1275,3.1358,3.1492,3.1554,3.1532,3.175,3.1691,3.1699,3.1706,3.1776,3.1795,3.1811,3.1595,3.1594,3.1593,0,0,3.0704,3.0766,3.0871,3.093,3.1018,3.1054,3.1079,3.1167,3.1196,3.1321,3.1321,3.14,3.1555,3.1613,3.1662,3.181,3.1805,3.1837,3.1901,3.1971,3.1986,3.2,3.2049,3.2067,3.185,3.185,3.185,0,3.0751,3.0893,3.0925,3.1025,3.1081,3.1084,3.1188,3.1243,3.1356,3.1393,3.1367,3.1557,3.1614,3.1759,3.1794,3.1836,3.1862,3.1827,3.1982,3.1996,3.2009,3.2056,3.2075,3.1853,3.1853,3.1852,3.1852,0,3.0943,3.1041,3.1115,3.1222,3.1287,3.1389,3.1433,3.1494,3.1504,3.1541,3.1664,3.1732,3.183,3.1866,3.1878,3.2011,3.1994,3.1975,3.1928,3.203,3.2075,3.2093,3.1857,3.1856,3.1855,3.1854,0,0,3.1098,3.1219,3.1245,3.1292,3.1388,3.1463,3.1562,3.1658,3.1708,3.1784,3.1865,3.1993,3.1975,3.2031,3.2049,3.2111,3.2218,3.2084,3.2086,3.2104,3.2364,3.2376,3.2397,3.2216,3.2219,3.2222,3.2356,0,3.1238,3.1417,3.1446,3.1602,3.1689,3.1691,3.1777,3.1843,3.1879,3.1956,3.1995,3.2084,3.2055,3.2088,3.2149,3.2192,3.2271,3.2183,3.2289,3.2292,3.2266,3.2421,3.2436,3.2558,3.2374,3.2377,3.2379,0,3.1426,3.1506,3.167,3.1749,3.1787,3.1865,3.1952,3.2027,3.21,3.2121,3.2181,3.2191,3.229,3.2238,3.2373,3.2313,3.2357,3.2384,3.2389,3.2399,3.2341,3.2432,3.2599,3.2616,3.2407,3.2405,3.2403,0,3.1518,3.1667,3.1783,3.1823,3.192,3.1973,3.2015,3.2085,3.2139,3.2215,3.2249,3.2335,3.2382,3.2446,3.2477,3.2437,3.2607,3.256,3.2625,3.2624,3.266,3.2657,3.2834,3.2692,3.2692,3.2691,3.2691,0,3.167,3.177,3.1825,3.1896,3.2006,3.2037,3.2143,3.2184,3.2245,3.2321,3.2328,3.2399,3.2436,3.2511,3.2535,3.264,3.2662,3.2679,3.2683,3.2677,3.2675,3.2706,3.2697,3.2696,3.2695,3.2694,3.2693,0,3.1792,3.1834,3.1959,3.2039,3.2061,3.2138,3.2205,3.2272,3.2306,3.2402,3.2426,3.2479,3.2567,3.2604,3.2713,3.2729,3.2848,3.2848,3.2824,3.2825,3.2886,3.2879,3.3087,3.3114,3.2957,3.2959,3.296,0,3.1886,3.1962,3.2049,3.2101,3.2145,3.2229,3.2283,3.2315,3.2371,3.2457,3.2512,3.2601,3.2673,3.2813,3.286,3.2941,3.2941,3.3008,3.2953,3.2943,3.2938,3.2932,3.2938,3.3018,3.302,3.3021,3.3022,0,3.2047,3.2062,3.2142,3.2227,3.2291,3.236,3.2427,3.2468,3.2509,3.2571,3.2662,3.2717,3.2827,3.2913,3.2996,3.3036,3.3035,3.3039,3.3057,3.3051,3.3033,3.304,3.2848,3.3034,3.3033,3.3032,3.3031,3.3031,3.2155,3.2221,3.2292,3.2378,3.2431,3.2492,3.2558,3.2599,3.2675,3.2767,3.278,3.2876,3.2941,3.3053,3.3096,3.3169,3.3151,3.318,3.3186,3.3192,3.3194,3.3022,3.3184,3.3184,3.3184,3.3184,3.3183,0,3.2313,3.2358,3.2437,3.2529,3.2596,3.259,3.2661,3.2717,3.2801,3.2863,3.2934,3.3035,3.3117,3.3168,3.325,3.3298,3.3298,3.3318,3.3314,3.3322,3.3207,3.3181,3.3315,3.3315,3.3315,3.3315,3.3315,3.3315,3.2404,3.2513,3.2536,3.267,3.2713,3.2808,3.2849,3.2903,3.2952,3.3065,3.3133,3.3166,3.3222,3.3307,3.3381,3.3393,3.3422,3.3442,3.3453,3.3344,3.3331,3.3317,3.3293,3.3448,3.3449,3.3561,3.3562,3.3563]}]]